North Battleford Airport
CYQW : rendu visible

Aérodrome :











RETROUVEZ-NOUS SUR...

 
LOGIN :

S'inscrire | Disclaimer

   EN    FR    IT 

 









Légende :    VFR   VFR Marginal   IFR   IFR Intensif   IFR Très Intensif
Visi : 
Plafond : 
>= 8 km
>= 3000ft
5 à 8 km
1000 à 3000 ft
1500m à 5 km
500 à 1000 ft
800 à 1500m
200 à 500 ft
< 800m
< 200 ft
Symboles :   Orages  Brouillard  Fortes neiges  Fortes précipitations  Vent > 20 kt






- Altitude de l'aérodrome : 1799 ft
- Code IATA : YQW


CYQW - North Battleford

DERNIER METAR :
  • 310300Z AUTO 10016G24KT 9SM CLR 19/04 A2996 RMK SLP151 DENSITY ALT 2600FT

METARs EXPIRÉS :
  • 310200Z AUTO 10019G24KT 9SM CLR 20/04 A2997 RMK SLP155 DENSITY ALT 2700FT
  • 310100Z AUTO 10019G27KT 9SM CLR 21/04 A2999 RMK SLP163 DENSITY ALT 2800FT

TAF TAF CYQW
Valide du 31 à 00h jusqu'au 31 à 12h UTC


302338Z 3100/3112 10018G28KT P6SM BKN120
FM310200 14015KT P6SM SCT100 RMK FCST BASED ON AUTO OBS. NXT FCST BY 310600Z
FIR CZWG / Amérique du Nord



MET'MAP, la Météo Aéronautique d'un coup d'oeil ! - Copyright ORBIFLY Décembre 2007 - Disclaimer

ORBIFLY MET'MAP TEAM :

Programmation & Développement : Alexandra Zaïnal
Sur une idée originale de : Baudouin d'Aumeries
Assistance à la programmation : Marc-Olivier Méhu
Soutien technique & logistique : Manuel Goepfert

Contact : metmap@orbifly.com




SOURCES & CREDITS :

   NOAA       Earth
Advisory